Location: *
(40.7190°N, 4.2480°W)
Time: 01:57:57
(UTC+00:00)

Cosmos 1943 Rocket - Pass Details

Date: 18 February 2020
Orbit: 813 x 842 km, 71.0° (Epoch: 09 April)

Event Time Altitude Azimuth Distance (km) Brightness Sun altitude
Exits shadow 05:54:51 - 329° (NNW) 3,097 4.8 -14.5°
Reaches altitude 10° 05:56:42 10° 325° (NW) 2,408 4.2 -14.1°
Maximum altitude 06:01:55 46° 253° (WSW) 1,084 2.4 -13.1°
Drops below altitude 10° 06:07:07 10° 181° (S) 2,396 4.6 -12.2°
Sets 06:09:37 0° 176° (S) 3,327 5.4 -11.7°
